Regional Weather Roundup
Issued by NWS Green Bay, WI

Home | Current Version | Previous Version | Text Only | Print | Product List | Glossary On
Versions: 1 2 3 4 5 6 7 8 9 10 11 12 13 14 15 16 17 18 19 20 21 22 23 24 25 26 27 28 29 30 31 32 33 34 35 36 37 38 39 40 41 42 43 44 45 46 47 48 49 50
000
ASUS43 KGRB 220700
RWRGRB

NORTH-CENTRAL AND NORTHEAST WISCONSIN REGIONAL WEATHER ROUNDUP
NATIONAL WEATHER SERVICE GREEN BAY WI
200 AM CDT THU JUN 22 2017

WIZ005-009-010>012-018-019-220800-
NORTH CENTRAL WISCONSIN

CITY           SKY/WX    TMP DP  RH WIND       PRES   REMARKS
IRONWOOD       CLOUDY    66  55  67 S9        29.70F
MANITOWISH WTR NOT AVBL
ARBOR VITAE    NOT AVBL
EAGLE RIVER    NOT AVBL
LAND O LAKES   PTCLDY    62  54  73 S6        29.76F
RHINELANDER    CLOUDY    66  56  70 S7        29.75F
PHILLIPS       NOT AVBL
ANTIGO         NOT AVBL
TOMAHAWK       NOT AVBL
MERRILL        CLOUDY    65  57  76 S3        29.75F
$$

WIZ013-073-220800-
NORTHEAST WISCONSIN

CITY           SKY/WX    TMP DP  RH WIND       PRES   REMARKS
IRON MOUNTAIN  CLOUDY    61  54  77 SE5       29.76F
MARINETTE      MOCLDY    64  51  62 S5        29.79S
$$

WIZ017-030-035>037-045-220800-
CENTRAL WISCONSIN

CITY           SKY/WX    TMP DP  RH WIND       PRES   REMARKS
MEDFORD        NOT AVBL
WAUSAU         CLOUDY    65  58  78 S8        29.74F
MOSINEE        NOT AVBL
MARSHFIELD     CLOUDY    65  57  75 S6        29.74F
WISC RAPIDS    CLOUDY    64  61  90 SE7       29.77F
STEVENS POINT  NOT AVBL
WAUPACA        CLOUDY    64  63  97 S5        29.78F
SHAWANO        NOT AVBL
CLINTONVILLE   NOT AVBL
WAUTOMA        CLOUDY    64  59  83 E3        29.79R
$$

WIZ038-039-048-051-220800-
FOX VALLEY

CITY           SKY/WX    TMP DP  RH WIND       PRES   REMARKS
NWS GREEN BAY  RAIN      62  60  93 S10       29.78F
APPLETON       NOT AVBL
OSHKOSH        CLOUDY    65  57  75 SE6       29.78F
FOND DU LAC    CLOUDY    67  54  63 CALM      29.80R
$$

WIZ022-050-052-220800-
EAST CENTRAL WISCONSIN

CITY           SKY/WX    TMP DP  RH WIND       PRES   REMARKS
EPHRAIM        NOT AVBL
WASHINGTON ISL NOT AVBL
STURGEON BAY     N/A     63  51  65 S13         N/A
MANITOWOC      NOT AVBL
SHEBOYGAN      CLOUDY    65  57  75 VRB5      29.81F
$$

LMZ563-521-522-541>543-220800-
LAKESHORE

STATION/POSITION TIME  TEMP    WIND        PRES    VSBY  WAVE
                       AIR SEA DIR/SP/G                  HT/PER
                 (UTC) (F)     (DEG/KT/KT) (MB)    (MI)  (FT/S)
SHEBOYGAN LKSHOR 0600   61     180/ 12/ 13 1009.4F
KEWAUNEE LKSHORE 0630   56     180/ 12/ 13 1009.3S
NORTHPORT PIER   0640   63     160/  9/ 12 1009.1F
N MID LAKE BUOY  0550   58 55  180/ 12/ 14 1011.1F         1/ 3
CHAMBERS ISLAND  0640   65     150/  5/ 12 1008.5S
MENOMINEE LKSHOR 0624          170/ 10/ 12 1008.0
$$




USA.gov is the U.S. government's official web portal to all federal, state and local government web resources and services.